Tracking 19706 objects as of 16-Jun-2019
HD Live streaming from Space Station
objects crossing your sky now

COSMOS 397 DEB

Track COSMOS 397 DEB now!
10-day predictions


NORAD ID: 5018
Int'l Code: 1971-015M
Perigee: 577.4 km
Apogee: 2,123.2 km
Inclination: 65.7 °
Period: 112.5 minutes
Semi major axis: 7721 km
RCS: 0.1181 m2 (medium)
Launch date: February 25, 1971
Source: Commonwealth of Independent States (former USSR) (CIS)
Launch site: TYURATAM MISSILE AND SPACE COMPLEX (TTMTR)

Note: This is SATELLITE DEBRIS
aabbcc
Your satellite tracking list
Your tracking list is empty




NASA's NSSDC Master Catalog

Two Line Element Set (TLE):
1  5018U 71015M   19166.51795550 -.00000081  00000-0 -14670-5 0  9992
2  5018  65.7103 204.3558 1000996 162.4330 201.4122 12.79575489251860
Source of the keplerian elements: AFSPC